Location: ??????
(56.0120°N, 39.1740°E)
Time: 22:07:44
(UTC+00:00)

NOSS 3-4 (A) - Pass Details

Date: 14 April 2026
Orbit: 769 x 1442 km, 63.4° (Epoch: 10 January)

Event Time Altitude Azimuth Distance (km) Brightness Sun altitude
Rises 23:37:58 0° 298° (WNW) 3,473 6.3 -18.6°
Reaches altitude 10° 23:40:22 10° 303° (WNW) 2,608 5.7 -18.4°
Maximum altitude 23:46:21 54° 21° (NNE) 1,226 4.4 -17.9°
Drops below altitude 10° 23:53:25 10° 98° (E) 3,064 6.5 -17.3°
Sets 23:56:27 0° 103° (ESE) 4,130 7.1 -17.0°
